This is the latest recevied weather packets stored in our database for station/object KB2AHZ. If no packets are shown the sender has not sent any weather packets the latest 10 day(s).
| Time | Temp. | Humidity | Pressure | Rain* | Wind** | Luminosity | Snow |
|---|---|---|---|---|---|---|---|
| 1777552998 | 12.78° C | 99% | 1010.7 hPa | 0 mm | - | 61 W/m² | - |
| 1777552698 | 12.22° C | 99% | 1010.4 hPa | 0 mm | - | 52 W/m² | - |
| 1777552395 | 12.22° C | 99% | 1010.5 hPa | 0 mm | - | 47 W/m² | - |
| 1777552091 | 12.22° C | 99% | 1010.5 hPa | 0 mm | - | 59 W/m² | - |
| 1777551788 | 12.22° C | 99% | 1010.5 hPa | 0 mm | - | 47 W/m² | - |
| 1777551486 | 12.78° C | 99% | 1010.3 hPa | 0 mm | - | 49 W/m² | - |
| 1777551182 | 12.22° C | 99% | 1010 hPa | 0 mm | - | 60 W/m² | - |
| 1777550880 | 12.22° C | 99% | 1010.2 hPa | 0 mm | - | 66 W/m² | - |
| 1777550576 | 12.22° C | 99% | 1010.3 hPa | 0 mm | - | 64 W/m² | - |
| 1777550271 | 12.22° C | 99% | 1009.8 hPa | 0 mm | - | 52 W/m² | - |
| 1777549969 | 12.22° C | 99% | 1010 hPa | 0 mm | - | 61 W/m² | - |
| 1777549665 | 12.22° C | 99% | 1009.7 hPa | 0 mm | - | 80 W/m² | - |
| 1777549360 | 12.22° C | 99% | 1009.2 hPa | 0 mm | - | 59 W/m² | - |
| 1777549058 | 12.22° C | 99% | 1009.2 hPa | 0 mm | - | 58 W/m² | - |
| 1777548754 | 12.22° C | 99% | 1009.3 hPa | 0 mm | - | 48 W/m² | - |
| 1777548452 | 12.22° C | 99% | 1009 hPa | 0 mm | - | 41 W/m² | - |
| 1777548148 | 12.22° C | 99% | 1009.1 hPa | 0 mm | - | 39 W/m² | - |
| 1777547844 | 12.22° C | 99% | 1009.4 hPa | 0 mm | - | 54 W/m² | - |
| 1777547540 | 12.22° C | 99% | 1009.5 hPa | 0 mm | - | 37 W/m² | - |
| 1777547238 | 12.22° C | 99% | 1009.7 hPa | 0 mm | - | 32 W/m² | - |
| 1777546935 | 11.67° C | 99% | 1009.7 hPa | 0 mm | - | 27 W/m² | - |
| 1777546632 | 11.67° C | 99% | 1010.1 hPa | 0 mm | - | 30 W/m² | - |
| 1777546328 | 11.67° C | 99% | 1009.8 hPa | 0 mm | - | 32 W/m² | - |
| 1777546026 | 11.67° C | 99% | 1010 hPa | 0 mm | - | 21 W/m² | - |
| 1777545721 | 11.67° C | 99% | 1009.9 hPa | 0 mm | - | 10 W/m² | - |
* Rain latest hour (hover to see other rain measurements)
** Current wind speed in m/s (hover to see current wind gust speed)